Time,TemperatureF,DewpointF,PressureIn,WindDirection,WindDirectionDegrees,WindSpeedMPH,WindSpeedGustMPH,Humidity,HourlyPrecipIn,Conditions,Clouds,dailyrainin,SoftwareType,DateUTC
2013-09-10 00:01:00,68.5,64.1,29.94,SSW,202,8.9,12.3,86,0.00,,,0.00,WUHU21623XXSP,2013-09-10 04:01:00,
2013-09-10 00:04:00,68.5,64.1,29.94,South,180,4.9,17.4,86,0.00,,,0.00,WUHU21623XXSP,2013-09-10 04:04:00,
2013-09-10 00:09:00,68.7,64.3,29.94,SSW,202,4.7,17.4,86,0.00,,,0.00,WUHU21623XXSP,2013-09-10 04:09:00,
2013-09-10 00:14:00,68.9,64.5,29.94,South,180,3.1,11.0,86,0.00,,,0.00,WUHU21623XXSP,2013-09-10 04:14:00,
2013-09-10 00:19:00,68.9,64.5,29.95,South,180,3.1,8.7,86,0.00,,,0.00,WUHU21623XXSP,2013-09-10 04:19:00,
2013-09-10 00:24:00,68.9,64.5,29.95,SSW,202,8.7,8.7,86,0.00,,,0.00,WUHU21623XXSP,2013-09-10 04:24:00,
2013-09-10 00:29:00,68.9,64.5,29.95,SW,225,1.8,8.9,86,0.00,,,0.00,WUHU21623XXSP,2013-09-10 04:29:00,
2013-09-10 00:34:00,68.9,64.5,29.95,SW,225,2.5,8.9,86,0.00,,,0.00,WUHU21623XXSP,2013-09-10 04:34:00,
2013-09-10 00:39:00,68.9,64.5,29.95,SSW,202,5.1,8.9,86,0.00,,,0.00,WUHU21623XXSP,2013-09-10 04:39:00,
2013-09-10 00:44:00,68.7,64.3,29.94,SSW,202,2.5,8.3,86,0.00,,,0.00,WUHU21623XXSP,2013-09-10 04:44:00,
2013-09-10 00:49:00,68.7,64.3,29.94,SSW,202,2.5,11.4,86,0.00,,,0.00,WUHU21623XXSP,2013-09-10 04:49:00,
2013-09-10 00:54:00,68.9,64.5,29.94,SSW,202,1.8,11.4,86,0.00,,,0.00,WUHU21623XXSP,2013-09-10 04:54:00,
2013-09-10 00:59:00,68.9,64.5,29.94,SSW,202,7.8,12.3,86,0.00,,,0.00,WUHU21623XXSP,2013-09-10 04:59:00,
2013-09-10 01:04:00,68.9,64.5,29.94,SSW,202,3.6,12.3,86,0.00,,,0.00,WUHU21623XXSP,2013-09-10 05:04:00,
2013-09-10 01:09:00,69.1,64.7,29.94,SSW,202,0.0,8.9,86,0.00,,,0.00,WUHU21623XXSP,2013-09-10 05:09:00,
2013-09-10 01:14:00,68.9,64.5,29.94,SSW,202,1.3,8.9,86,0.00,,,0.00,WUHU21623XXSP,2013-09-10 05:14:00,
2013-09-10 01:19:00,68.9,64.5,29.93,South,180,7.2,8.1,86,0.00,,,0.00,WUHU21623XXSP,2013-09-10 05:19:00,
2013-09-10 01:24:00,69.1,64.7,29.93,South,180,7.2,11.4,86,0.00,,,0.00,WUHU21623XXSP,2013-09-10 05:24:00,
2013-09-10 01:29:00,69.1,64.7,29.94,SSW,202,2.0,11.4,86,0.00,,,0.00,WUHU21623XXSP,2013-09-10 05:29:00,
2013-09-10 01:34:00,69.1,64.7,29.94,SSW,202,7.4,9.6,86,0.00,,,0.00,WUHU21623XXSP,2013-09-10 05:34:00,
2013-09-10 01:39:00,69.3,64.8,29.93,SSW,202,6.9,9.2,86,0.00,,,0.00,WUHU21623XXSP,2013-09-10 05:39:00,
2013-09-10 01:44:00,69.3,64.8,29.93,SSW,202,1.3,9.2,86,0.00,,,0.00,WUHU21623XXSP,2013-09-10 05:44:00,
2013-09-10 01:49:00,69.4,64.7,29.94,SSW,202,4.9,11.0,85,0.00,,,0.00,WUHU21623XXSP,2013-09-10 05:49:00,
2013-09-10 01:54:00,69.4,64.7,29.94,SW,225,5.6,11.6,85,0.00,,,0.00,WUHU21623XXSP,2013-09-10 05:54:00,
2013-09-10 01:59:00,69.6,64.8,29.93,South,180,6.3,11.6,85,0.00,,,0.00,WUHU21623XXSP,2013-09-10 05:59:00,
2013-09-10 02:04:00,69.6,64.8,29.93,SSW,202,2.9,11.6,85,0.00,,,0.00,WUHU21623XXSP,2013-09-10 06:04:00,
2013-09-10 02:09:00,69.6,64.8,29.93,SW,225,3.4,11.6,85,0.00,,,0.00,WUHU21623XXSP,2013-09-10 06:09:00,
2013-09-10 02:14:00,69.8,65.0,29.93,SW,225,6.5,8.9,85,0.00,,,0.00,WUHU21623XXSP,2013-09-10 06:14:00,
2013-09-10 02:19:00,70.0,64.9,29.93,SSW,202,0.0,8.9,84,0.00,,,0.00,WUHU21623XXSP,2013-09-10 06:19:00,
2013-09-10 02:24:00,70.0,64.9,29.93,SSW,202,3.8,8.5,84,0.00,,,0.00,WUHU21623XXSP,2013-09-10 06:24:00,
2013-09-10 02:29:00,70.0,64.9,29.93,South,180,0.0,8.5,84,0.00,,,0.00,WUHU21623XXSP,2013-09-10 06:29:00,
2013-09-10 02:34:00,70.0,64.9,29.93,South,180,0.0,6.9,84,0.00,,,0.00,WUHU21623XXSP,2013-09-10 06:34:00,
2013-09-10 02:39:00,70.0,64.9,29.93,South,180,4.5,5.4,84,0.00,,,0.00,WUHU21623XXSP,2013-09-10 06:39:00,
2013-09-10 02:44:00,70.0,64.9,29.92,South,180,2.2,6.5,84,0.00,,,0.00,WUHU21623XXSP,2013-09-10 06:44:00,
2013-09-10 02:49:00,70.0,64.9,29.92,SSW,202,0.0,7.2,84,0.00,,,0.00,WUHU21623XXSP,2013-09-10 06:49:00,
2013-09-10 02:54:00,70.0,64.9,29.92,SSW,202,6.3,8.7,84,0.00,,,0.00,WUHU21623XXSP,2013-09-10 06:54:00,
2013-09-10 02:59:00,70.0,64.9,29.92,SW,225,8.9,11.2,84,0.00,,,0.00,WUHU21623XXSP,2013-09-10 06:59:00,
2013-09-10 03:04:00,70.2,65.0,29.92,SSW,202,8.5,12.3,84,0.00,,,0.00,WUHU21623XXSP,2013-09-10 07:04:00,
2013-09-10 03:09:00,70.3,65.6,29.92,South,180,10.7,12.8,85,0.00,,,0.00,WUHU21623XXSP,2013-09-10 07:09:00,
2013-09-10 03:14:00,70.3,65.6,29.91,SSW,202,4.5,12.8,85,0.00,,,0.00,WUHU21623XXSP,2013-09-10 07:14:00,
2013-09-10 03:19:00,70.3,65.2,29.92,South,180,8.7,10.5,84,0.00,,,0.00,WUHU21623XXSP,2013-09-10 07:19:00,
2013-09-10 03:24:00,70.5,65.4,29.92,SSW,202,4.7,11.0,84,0.00,,,0.00,WUHU21623XXSP,2013-09-10 07:24:00,
2013-09-10 03:29:00,70.5,65.4,29.91,SW,225,8.3,11.2,84,0.00,,,0.00,WUHU21623XXSP,2013-09-10 07:29:00,
2013-09-10 03:34:00,70.7,65.6,29.91,SW,225,11.4,11.4,84,0.00,,,0.00,WUHU21623XXSP,2013-09-10 07:34:00,
2013-09-10 03:39:00,70.7,65.6,29.91,SSW,202,2.9,11.4,84,0.00,,,0.00,WUHU21623XXSP,2013-09-10 07:39:00,
2013-09-10 03:44:00,70.7,65.6,29.91,South,180,7.2,10.3,84,0.00,,,0.00,WUHU21623XXSP,2013-09-10 07:44:00,
2013-09-10 03:49:00,70.9,65.8,29.92,SSW,202,8.9,10.5,84,0.00,,,0.00,WUHU21623XXSP,2013-09-10 07:49:00,
2013-09-10 03:54:00,70.9,65.8,29.91,South,180,9.2,10.5,84,0.00,,,0.00,WUHU21623XXSP,2013-09-10 07:54:00,
2013-09-10 03:59:00,70.9,65.8,29.92,SSW,202,2.7,9.2,84,0.00,,,0.00,WUHU21623XXSP,2013-09-10 07:59:00,
2013-09-10 04:04:00,70.9,65.8,29.91,SSW,202,6.0,10.1,84,0.00,,,0.00,WUHU21623XXSP,2013-09-10 08:04:00,
2013-09-10 04:09:00,70.9,65.8,29.91,SSW,202,7.2,11.6,84,0.00,,,0.00,WUHU21623XXSP,2013-09-10 08:09:00,
2013-09-10 04:14:00,71.2,66.1,29.91,SSW,202,8.5,11.6,84,0.00,,,0.00,WUHU21623XXSP,2013-09-10 08:14:00,
2013-09-10 04:19:00,71.2,66.1,29.91,South,180,8.1,10.3,84,0.00,,,0.00,WUHU21623XXSP,2013-09-10 08:19:00,
2013-09-10 04:24:00,71.2,66.1,29.91,SW,225,7.2,10.3,84,0.00,,,0.00,WUHU21623XXSP,2013-09-10 08:24:00,
2013-09-10 04:29:00,71.4,66.3,29.91,SSW,202,8.9,11.2,84,0.00,,,0.00,WUHU21623XXSP,2013-09-10 08:29:00,
2013-09-10 04:34:00,71.4,66.3,29.91,SSW,202,4.9,15.2,84,0.00,,,0.00,WUHU21623XXSP,2013-09-10 08:34:00,
2013-09-10 04:39:00,71.8,66.3,29.90,WSW,247,11.6,15.2,83,0.00,,,0.00,WUHU21623XXSP,2013-09-10 08:39:00,
2013-09-10 04:43:00,71.8,66.3,29.91,SW,225,3.4,11.9,83,0.00,,,0.00,WUHU21623XXSP,2013-09-10 08:43:00,
2013-09-10 04:48:00,71.8,66.7,29.91,SW,225,5.4,11.9,84,0.00,,,0.00,WUHU21623XXSP,2013-09-10 08:48:00,
2013-09-10 04:53:00,71.6,66.8,29.90,SW,225,8.3,11.6,85,0.00,,,0.00,WUHU21623XXSP,2013-09-10 08:53:00,
2013-09-10 04:58:00,71.4,66.7,29.91,WSW,247,8.9,10.5,85,0.00,,,0.00,WUHU21623XXSP,2013-09-10 08:58:00,
2013-09-10 05:03:00,71.8,67.4,29.92,WSW,247,6.9,17.9,86,0.00,,,0.00,WUHU21623XXSP,2013-09-10 09:03:00,
2013-09-10 05:08:00,71.4,67.3,29.91,SSW,202,6.5,17.9,87,0.00,,,0.00,WUHU21623XXSP,2013-09-10 09:08:00,
2013-09-10 05:13:00,71.2,67.2,29.91,WSW,247,9.2,11.9,87,0.00,,,0.00,WUHU21623XXSP,2013-09-10 09:13:00,
2013-09-10 05:18:00,71.2,67.5,29.90,WSW,247,7.8,11.9,88,0.02,,,0.02,WUHU21623XXSP,2013-09-10 09:18:00,
2013-09-10 05:23:00,70.9,67.1,29.91,SW,225,0.0,11.9,88,0.08,,,0.08,WUHU21623XXSP,2013-09-10 09:23:00,
2013-09-10 05:28:00,70.5,67.1,29.90,SSW,202,6.3,11.9,89,0.08,,,0.08,WUHU21623XXSP,2013-09-10 09:28:00,
2013-09-10 05:33:00,70.5,67.5,29.91,South,180,0.0,10.5,90,0.08,,,0.08,WUHU21623XXSP,2013-09-10 09:33:00,
2013-09-10 05:38:00,70.5,67.5,29.90,SSW,202,1.3,10.5,90,0.08,,,0.08,WUHU21623XXSP,2013-09-10 09:38:00,
2013-09-10 05:43:00,70.5,67.5,29.90,SW,225,2.0,8.5,90,0.08,,,0.08,WUHU21623XXSP,2013-09-10 09:43:00,
2013-09-10 05:48:00,70.5,67.8,29.90,SSW,202,9.2,18.8,91,0.08,,,0.08,WUHU21623XXSP,2013-09-10 09:48:00,
2013-09-10 05:53:00,70.7,67.9,29.89,SW,225,7.8,18.8,91,0.08,,,0.08,WUHU21623XXSP,2013-09-10 09:53:00,
2013-09-10 05:58:00,70.9,68.1,29.89,SW,225,10.3,15.4,91,0.08,,,0.08,WUHU21623XXSP,2013-09-10 09:58:00,
2013-09-10 06:03:00,71.1,68.3,29.89,SW,225,12.5,18.1,91,0.08,,,0.08,WUHU21623XXSP,2013-09-10 10:03:00,
2013-09-10 06:08:00,71.2,68.5,29.89,West,270,6.5,18.1,91,0.08,,,0.08,WUHU21623XXSP,2013-09-10 10:08:00,
2013-09-10 06:13:00,71.2,68.5,29.88,WSW,247,8.5,12.1,91,0.08,,,0.08,WUHU21623XXSP,2013-09-10 10:13:00,
2013-09-10 06:18:00,71.4,68.4,29.88,SSW,202,7.4,12.8,90,0.06,,,0.08,WUHU21623XXSP,2013-09-10 10:18:00,
2013-09-10 06:23:00,71.4,68.4,29.88,SW,225,13.2,19.2,90,0.00,,,0.08,WUHU21623XXSP,2013-09-10 10:23:00,
2013-09-10 06:28:00,71.4,68.4,29.88,WSW,247,1.1,19.2,90,0.00,,,0.08,WUHU21623XXSP,2013-09-10 10:28:00,
2013-09-10 06:33:00,71.4,68.4,29.89,SSW,202,11.4,12.5,90,0.00,,,0.08,WUHU21623XXSP,2013-09-10 10:33:00,
2013-09-10 06:38:00,71.4,68.4,29.89,SW,225,12.8,12.8,90,0.00,,,0.08,WUHU21623XXSP,2013-09-10 10:38:00,
2013-09-10 06:43:00,71.4,68.4,29.89,SSW,202,6.0,12.8,90,0.00,,,0.08,WUHU21623XXSP,2013-09-10 10:43:00,
2013-09-10 06:48:00,71.4,68.4,29.89,SSW,202,8.5,15.4,90,0.00,,,0.08,WUHU21623XXSP,2013-09-10 10:48:00,
2013-09-10 06:53:00,71.8,68.7,29.90,SW,225,8.5,15.4,90,0.00,,,0.08,WUHU21623XXSP,2013-09-10 10:53:00,
2013-09-10 06:58:00,71.8,68.7,29.89,WSW,247,5.8,13.2,90,0.00,,,0.08,WUHU21623XXSP,2013-09-10 10:58:00,
2013-09-10 07:03:00,71.8,68.7,29.89,SW,225,10.7,12.5,90,0.00,,,0.08,WUHU21623XXSP,2013-09-10 11:03:00,
2013-09-10 07:08:00,72.1,68.7,29.89,SW,225,7.2,12.8,89,0.00,,,0.08,WUHU21623XXSP,2013-09-10 11:08:00,
2013-09-10 07:13:00,72.1,68.7,29.89,SSW,202,7.4,21.3,89,0.00,,,0.08,WUHU21623XXSP,2013-09-10 11:13:00,
2013-09-10 07:18:00,72.3,68.9,29.89,SSW,202,2.7,21.3,89,0.00,,,0.08,WUHU21623XXSP,2013-09-10 11:18:00,
2013-09-10 07:23:00,72.7,69.3,29.90,West,270,0.0,13.4,89,0.00,,,0.08,WUHU21623XXSP,2013-09-10 11:23:00,
2013-09-10 07:28:00,73.0,69.3,29.90,SW,225,11.4,19.5,88,0.00,,,0.08,WUHU21623XXSP,2013-09-10 11:28:00,
2013-09-10 07:33:00,73.8,70.0,29.89,WSW,247,6.0,19.5,88,0.00,,,0.08,WUHU21623XXSP,2013-09-10 11:33:00,
2013-09-10 07:38:00,73.9,69.9,29.89,WSW,247,13.0,13.0,87,0.00,,,0.08,WUHU21623XXSP,2013-09-10 11:38:00,
2013-09-10 07:43:00,74.1,69.7,29.90,SW,225,11.6,16.6,86,0.00,,,0.08,WUHU21623XXSP,2013-09-10 11:43:00,
2013-09-10 07:48:00,74.5,69.7,29.90,SW,225,9.4,16.6,85,0.00,,,0.08,WUHU21623XXSP,2013-09-10 11:48:00,
2013-09-10 07:53:00,75.0,70.3,29.91,South,180,8.3,13.2,85,0.00,,,0.08,WUHU21623XXSP,2013-09-10 11:53:00,
2013-09-10 07:58:00,75.0,70.3,29.91,SSW,202,4.0,13.2,85,0.00,,,0.08,WUHU21623XXSP,2013-09-10 11:58:00,
2013-09-10 08:03:00,75.0,70.3,29.92,SW,225,9.4,13.6,85,0.00,,,0.08,WUHU21623XXSP,2013-09-10 12:03:00,
2013-09-10 08:08:00,75.0,69.9,29.92,WSW,247,8.9,13.6,84,0.00,,,0.08,WUHU21623XXSP,2013-09-10 12:08:00,
2013-09-10 08:13:00,75.4,70.3,29.93,West,270,6.7,11.4,84,0.00,,,0.08,WUHU21623XXSP,2013-09-10 12:13:00,
2013-09-10 08:18:00,75.4,70.3,29.93,West,270,6.5,17.4,84,0.00,,,0.08,WUHU21623XXSP,2013-09-10 12:18:00,
2013-09-10 08:23:00,75.7,70.2,29.93,WSW,247,6.3,17.7,83,0.00,,,0.08,WUHU21623XXSP,2013-09-10 12:23:00,
2013-09-10 08:28:00,75.7,70.2,29.93,West,270,4.7,17.7,83,0.00,,,0.08,WUHU21623XXSP,2013-09-10 12:28:00,
2013-09-10 08:33:00,75.7,70.2,29.93,West,270,3.4,12.8,83,0.00,,,0.08,WUHU21623XXSP,2013-09-10 12:33:00,
2013-09-10 08:38:00,75.9,70.4,29.93,SW,225,6.5,10.5,83,0.00,,,0.08,WUHU21623XXSP,2013-09-10 12:38:00,
2013-09-10 08:43:00,76.1,70.6,29.93,WSW,247,9.2,12.8,83,0.00,,,0.08,WUHU21623XXSP,2013-09-10 12:43:00,
2013-09-10 08:48:00,76.6,70.7,29.93,West,270,3.1,12.8,82,0.00,,,0.08,WUHU21623XXSP,2013-09-10 12:48:00,
2013-09-10 08:53:00,77.0,71.4,29.93,SW,225,15.9,15.9,83,0.00,,,0.08,WUHU21623XXSP,2013-09-10 12:53:00,
2013-09-10 08:58:00,77.4,71.1,29.93,West,270,9.8,16.6,81,0.00,,,0.08,WUHU21623XXSP,2013-09-10 12:58:00,
2013-09-10 09:03:00,77.7,71.4,29.93,WSW,247,9.4,18.6,81,0.00,,,0.08,WUHU21623XXSP,2013-09-10 13:03:00,
2013-09-10 09:08:00,77.9,71.2,29.93,West,270,13.6,21.9,80,0.00,,,0.08,WUHU21623XXSP,2013-09-10 13:08:00,
2013-09-10 09:13:00,78.1,71.4,29.93,WSW,247,12.1,21.9,80,0.00,,,0.08,WUHU21623XXSP,2013-09-10 13:13:00,
2013-09-10 09:18:00,78.1,71.4,29.93,West,270,10.5,19.9,80,0.00,,,0.08,WUHU21623XXSP,2013-09-10 13:18:00,
2013-09-10 09:23:00,78.6,72.0,29.92,West,270,6.5,19.9,80,0.00,,,0.08,WUHU21623XXSP,2013-09-10 13:23:00,
2013-09-10 09:28:00,79.2,72.1,29.93,SW,225,8.9,15.7,79,0.00,,,0.08,WUHU21623XXSP,2013-09-10 13:28:00,
2013-09-10 09:33:00,79.7,72.2,29.93,WNW,292,4.7,26.4,78,0.00,,,0.08,WUHU21623XXSP,2013-09-10 13:33:00,
2013-09-10 09:38:00,79.7,71.9,29.93,West,270,6.0,26.4,77,0.00,,,0.08,WUHU21623XXSP,2013-09-10 13:38:00,
2013-09-10 09:43:00,79.5,71.7,29.93,West,270,10.1,17.2,77,0.00,,,0.08,WUHU21623XXSP,2013-09-10 13:43:00,
2013-09-10 09:48:00,79.5,71.7,29.93,SW,225,13.9,17.2,77,0.00,,,0.08,WUHU21623XXSP,2013-09-10 13:48:00,
2013-09-10 09:53:00,79.7,71.9,29.94,WSW,247,7.8,15.0,77,0.00,,,0.08,WUHU21623XXSP,2013-09-10 13:53:00,
2013-09-10 09:58:00,80.1,71.8,29.94,West,270,8.7,19.0,76,0.00,,,0.08,WUHU21623XXSP,2013-09-10 13:58:00,
2013-09-10 10:03:00,80.2,72.0,29.94,WSW,247,12.1,19.0,76,0.00,,,0.08,WUHU21623XXSP,2013-09-10 14:03:00,
2013-09-10 10:08:00,80.4,72.2,29.94,South,180,11.4,19.5,76,0.00,,,0.08,WUHU21623XXSP,2013-09-10 14:08:00,
2013-09-10 10:13:00,80.8,72.5,29.94,West,270,0.0,19.5,76,0.00,,,0.08,WUHU21623XXSP,2013-09-10 14:13:00,
2013-09-10 10:18:00,81.1,72.5,29.94,SW,225,12.3,17.9,75,0.00,,,0.08,WUHU21623XXSP,2013-09-10 14:18:00,
2013-09-10 10:23:00,81.3,72.6,29.94,WSW,247,7.2,16.3,75,0.00,,,0.08,WUHU21623XXSP,2013-09-10 14:23:00,
2013-09-10 10:28:00,81.3,72.2,29.94,SW,225,8.5,19.2,74,0.00,,,0.08,WUHU21623XXSP,2013-09-10 14:28:00,
2013-09-10 10:33:00,81.1,72.1,29.94,WSW,247,6.0,19.2,74,0.00,,,0.08,WUHU21623XXSP,2013-09-10 14:33:00,
2013-09-10 10:38:00,81.3,72.2,29.94,SSW,202,4.3,17.7,74,0.00,,,0.08,WUHU21623XXSP,2013-09-10 14:38:00,
2013-09-10 10:43:00,81.7,72.6,29.94,West,270,2.9,15.9,74,0.00,,,0.08,WUHU21623XXSP,2013-09-10 14:43:00,
2013-09-10 10:48:00,81.7,72.2,29.95,SW,225,6.5,16.8,73,0.00,,,0.08,WUHU21623XXSP,2013-09-10 14:48:00,
2013-09-10 10:53:00,82.0,72.5,29.95,WSW,247,6.7,23.0,73,0.00,,,0.08,WUHU21623XXSP,2013-09-10 14:53:00,
2013-09-10 10:58:00,82.0,72.9,29.94,West,270,3.4,23.0,74,0.00,,,0.08,WUHU21623XXSP,2013-09-10 14:58:00,
2013-09-10 11:03:00,82.0,72.5,29.94,WSW,247,7.4,18.3,73,0.00,,,0.08,WUHU21623XXSP,2013-09-10 15:03:00,
2013-09-10 11:08:00,82.2,72.7,29.94,SW,225,10.5,18.3,73,0.00,,,0.08,WUHU21623XXSP,2013-09-10 15:08:00,
2013-09-10 11:13:00,82.6,73.0,29.94,West,270,11.2,16.8,73,0.00,,,0.08,WUHU21623XXSP,2013-09-10 15:13:00,
2013-09-10 11:18:00,82.6,73.0,29.94,SSW,202,4.3,18.6,73,0.00,,,0.08,WUHU21623XXSP,2013-09-10 15:18:00,
2013-09-10 11:23:00,82.9,73.8,29.94,WSW,247,14.5,18.6,74,0.00,,,0.08,WUHU21623XXSP,2013-09-10 15:23:00,
2013-09-10 11:28:00,82.9,73.4,29.94,WSW,247,7.8,28.4,73,0.00,,,0.08,WUHU21623XXSP,2013-09-10 15:28:00,
2013-09-10 11:33:00,82.9,73.4,29.94,West,270,20.6,29.3,73,0.00,,,0.08,WUHU21623XXSP,2013-09-10 15:33:00,
2013-09-10 11:38:00,82.9,73.4,29.94,SW,225,23.5,29.3,73,0.00,,,0.08,WUHU21623XXSP,2013-09-10 15:38:00,
2013-09-10 11:43:00,83.1,73.5,29.94,SSW,202,11.0,23.5,73,0.00,,,0.08,WUHU21623XXSP,2013-09-10 15:43:00,
2013-09-10 11:48:00,83.8,74.2,29.94,SW,225,13.2,21.9,73,0.00,,,0.08,WUHU21623XXSP,2013-09-10 15:48:00,
2013-09-10 11:53:00,83.5,73.1,29.94,SSW,202,13.9,26.4,71,0.00,,,0.08,WUHU21623XXSP,2013-09-10 15:53:00,
2013-09-10 11:58:00,83.5,73.1,29.94,SSW,202,7.4,26.4,71,0.00,,,0.08,WUHU21623XXSP,2013-09-10 15:58:00,
2013-09-10 12:03:00,83.3,73.3,29.94,SW,225,12.3,25.1,72,0.00,,,0.08,WUHU21623XXSP,2013-09-10 16:03:00,
2013-09-10 12:08:00,82.2,72.2,29.94,WSW,247,8.7,25.1,72,0.00,,,0.08,WUHU21623XXSP,2013-09-10 16:08:00,
2013-09-10 12:13:00,82.4,72.8,29.94,WSW,247,17.4,25.1,73,0.00,,,0.08,WUHU21623XXSP,2013-09-10 16:13:00,
2013-09-10 12:18:00,82.8,72.8,29.94,SW,225,12.3,19.7,72,0.00,,,0.08,WUHU21623XXSP,2013-09-10 16:18:00,
2013-09-10 12:23:00,82.8,72.8,29.94,SW,225,13.0,19.5,72,0.00,,,0.08,WUHU21623XXSP,2013-09-10 16:23:00,
2013-09-10 12:28:00,82.8,72.8,29.94,WNW,292,10.7,19.9,72,0.00,,,0.08,WUHU21623XXSP,2013-09-10 16:28:00,
2013-09-10 12:33:00,83.1,73.1,29.94,WSW,247,15.2,19.9,72,0.00,,,0.08,WUHU21623XXSP,2013-09-10 16:33:00,
2013-09-10 12:38:00,83.1,72.7,29.94,SW,225,15.2,19.2,71,0.00,,,0.08,WUHU21623XXSP,2013-09-10 16:38:00,
2013-09-10 12:43:00,83.1,73.1,29.94,WSW,247,10.7,25.5,72,0.00,,,0.08,WUHU21623XXSP,2013-09-10 16:43:00,
2013-09-10 12:48:00,83.1,72.7,29.94,WSW,247,23.9,34.7,71,0.00,,,0.08,WUHU21623XXSP,2013-09-10 16:48:00,
2013-09-10 12:53:00,83.1,73.1,29.94,SSW,202,32.4,34.7,72,0.00,,,0.08,WUHU21623XXSP,2013-09-10 16:53:00,
2013-09-10 12:58:00,83.5,73.1,29.95,West,270,8.5,32.4,71,0.00,,,0.08,WUHU21623XXSP,2013-09-10 16:58:00,
2013-09-10 13:03:00,83.8,73.8,29.95,WSW,247,5.4,32.4,72,0.00,,,0.08,WUHU21623XXSP,2013-09-10 17:03:00,
2013-09-10 13:08:00,84.0,73.6,29.95,WSW,247,13.9,27.5,71,0.00,,,0.08,WUHU21623XXSP,2013-09-10 17:08:00,
2013-09-10 13:13:00,84.0,73.6,29.94,SW,225,17.9,27.5,71,0.00,,,0.08,WUHU21623XXSP,2013-09-10 17:13:00,
2013-09-10 13:18:00,84.0,73.6,29.95,West,270,1.6,31.1,71,0.00,,,0.08,WUHU21623XXSP,2013-09-10 17:18:00,
2013-09-10 13:23:00,84.0,73.6,29.94,SW,225,13.2,31.1,71,0.00,,,0.08,WUHU21623XXSP,2013-09-10 17:23:00,
2013-09-10 13:28:00,83.8,73.4,29.95,SW,225,11.0,30.0,71,0.00,,,0.08,WUHU21623XXSP,2013-09-10 17:28:00,
2013-09-10 13:33:00,84.0,73.6,29.95,WSW,247,20.1,24.8,71,0.00,,,0.08,WUHU21623XXSP,2013-09-10 17:33:00,
2013-09-10 13:38:00,84.0,73.6,29.95,WSW,247,20.4,28.9,71,0.00,,,0.08,WUHU21623XXSP,2013-09-10 17:38:00,
2013-09-10 13:43:00,83.8,73.4,29.94,WSW,247,23.7,28.9,71,0.00,,,0.08,WUHU21623XXSP,2013-09-10 17:43:00,
2013-09-10 13:48:00,83.7,73.3,29.95,WSW,247,7.6,26.2,71,0.00,,,0.08,WUHU21623XXSP,2013-09-10 17:48:00,
2013-09-10 13:53:00,83.8,73.0,29.95,SSW,202,19.0,31.8,70,0.00,,,0.08,WUHU21623XXSP,2013-09-10 17:53:00,
2013-09-10 13:58:00,84.0,73.6,29.95,West,270,9.2,31.8,71,0.00,,,0.08,WUHU21623XXSP,2013-09-10 17:58:00,
2013-09-10 14:03:00,84.0,73.2,29.95,SW,225,12.8,29.8,70,0.00,,,0.08,WUHU21623XXSP,2013-09-10 18:03:00,
2013-09-10 14:08:00,84.4,73.6,29.95,West,270,23.9,29.8,70,0.00,,,0.08,WUHU21623XXSP,2013-09-10 18:08:00,
2013-09-10 14:13:00,84.4,73.6,29.94,SSW,202,15.7,23.9,70,0.00,,,0.08,WUHU21623XXSP,2013-09-10 18:13:00,
2013-09-10 14:18:00,84.7,73.9,29.95,SSE,157,19.7,23.9,70,0.00,,,0.08,WUHU21623XXSP,2013-09-10 18:18:00,
2013-09-10 14:23:00,84.7,73.5,29.95,SW,225,10.1,19.7,69,0.00,,,0.08,WUHU21623XXSP,2013-09-10 18:23:00,
2013-09-10 14:28:00,84.7,73.5,29.95,SW,225,11.2,18.6,69,0.00,,,0.08,WUHU21623XXSP,2013-09-10 18:28:00,
2013-09-10 14:33:00,84.9,73.2,29.95,SSW,202,14.3,18.6,68,0.00,,,0.08,WUHU21623XXSP,2013-09-10 18:33:00,
2013-09-10 14:38:00,84.9,73.2,29.95,SW,225,9.4,18.6,68,0.00,,,0.08,WUHU21623XXSP,2013-09-10 18:38:00,
2013-09-10 14:43:00,85.3,73.5,29.95,WSW,247,8.5,18.8,68,0.00,,,0.08,WUHU21623XXSP,2013-09-10 18:43:00,
2013-09-10 14:48:00,85.3,73.5,29.94,SW,225,14.3,18.8,68,0.00,,,0.08,WUHU21623XXSP,2013-09-10 18:48:00,
2013-09-10 14:53:00,85.8,74.1,29.94,SSW,202,11.4,17.7,68,0.00,,,0.08,WUHU21623XXSP,2013-09-10 18:53:00,
2013-09-10 14:58:00,85.8,73.6,29.95,WSW,247,10.7,17.4,67,0.00,,,0.08,WUHU21623XXSP,2013-09-10 18:58:00,
2013-09-10 15:03:00,85.8,73.1,29.95,SW,225,8.3,18.6,66,0.00,,,0.08,WUHU21623XXSP,2013-09-10 19:03:00,
2013-09-10 15:08:00,86.4,73.7,29.94,WSW,247,9.2,18.6,66,0.00,,,0.08,WUHU21623XXSP,2013-09-10 19:08:00,
2013-09-10 15:13:00,86.4,73.2,29.94,SW,225,8.5,18.1,65,0.00,,,0.08,WUHU21623XXSP,2013-09-10 19:13:00,
2013-09-10 15:18:00,86.7,74.0,29.94,SSW,202,6.5,16.8,66,0.00,,,0.08,WUHU21623XXSP,2013-09-10 19:18:00,
2013-09-10 15:23:00,87.1,73.9,29.94,WSW,247,8.3,16.8,65,0.00,,,0.08,WUHU21623XXSP,2013-09-10 19:23:00,
2013-09-10 15:28:00,86.9,72.3,29.95,WSW,247,10.1,16.3,62,0.00,,,0.08,WUHU21623XXSP,2013-09-10 19:28:00,
2013-09-10 15:34:00,86.5,72.4,29.94,SW,225,17.4,17.4,63,0.00,,,0.08,WUHU21623XXSP,2013-09-10 19:34:00,
2013-09-10 15:39:00,86.5,72.9,29.94,West,270,15.4,17.4,64,0.00,,,0.08,WUHU21623XXSP,2013-09-10 19:39:00,
2013-09-10 15:44:00,86.4,72.3,29.94,WSW,247,16.8,20.1,63,0.00,,,0.08,WUHU21623XXSP,2013-09-10 19:44:00,
2013-09-10 15:49:00,86.2,72.1,29.95,West,270,6.5,20.1,63,0.00,,,0.08,WUHU21623XXSP,2013-09-10 19:49:00,
2013-09-10 15:54:00,86.2,72.1,29.94,WSW,247,14.1,20.8,63,0.00,,,0.08,WUHU21623XXSP,2013-09-10 19:54:00,
2013-09-10 15:59:00,86.2,72.1,29.94,West,270,5.6,20.8,63,0.00,,,0.08,WUHU21623XXSP,2013-09-10 19:59:00,
2013-09-10 16:04:00,86.2,72.1,29.95,WSW,247,10.1,18.6,63,0.00,,,0.08,WUHU21623XXSP,2013-09-10 20:04:00,
2013-09-10 16:09:00,86.4,71.8,29.95,West,270,8.5,18.1,62,0.00,,,0.08,WUHU21623XXSP,2013-09-10 20:09:00,
2013-09-10 16:14:00,86.5,71.5,29.95,WSW,247,10.7,18.3,61,0.00,,,0.08,WUHU21623XXSP,2013-09-10 20:14:00,
2013-09-10 16:19:00,86.7,72.2,29.95,SW,225,14.8,18.3,62,0.00,,,0.08,WUHU21623XXSP,2013-09-10 20:19:00,
2013-09-10 16:24:00,87.1,72.1,29.95,WSW,247,8.3,19.7,61,0.00,,,0.08,WUHU21623XXSP,2013-09-10 20:24:00,
2013-09-10 16:29:00,87.6,72.6,29.95,SW,225,9.8,19.7,61,0.00,,,0.08,WUHU21623XXSP,2013-09-10 20:29:00,
2013-09-10 16:34:00,87.4,72.0,29.95,SSW,202,6.5,20.1,60,0.00,,,0.08,WUHU21623XXSP,2013-09-10 20:34:00,
2013-09-10 16:39:00,87.1,71.6,29.95,SW,225,8.7,20.1,60,0.00,,,0.08,WUHU21623XXSP,2013-09-10 20:39:00,
2013-09-10 16:44:00,87.4,72.4,29.95,SW,225,3.8,17.7,61,0.00,,,0.08,WUHU21623XXSP,2013-09-10 20:44:00,
2013-09-10 16:49:00,87.6,72.6,29.95,WSW,247,0.0,15.2,61,0.00,,,0.08,WUHU21623XXSP,2013-09-10 20:49:00,
2013-09-10 16:54:00,87.6,72.1,29.95,WSW,247,2.7,15.2,60,0.00,,,0.08,WUHU21623XXSP,2013-09-10 20:54:00,
2013-09-10 16:59:00,87.3,71.8,29.95,WSW,247,10.5,17.4,60,0.00,,,0.08,WUHU21623XXSP,2013-09-10 20:59:00,
2013-09-10 17:04:00,87.3,71.8,29.95,West,270,4.5,17.4,60,0.00,,,0.08,WUHU21623XXSP,2013-09-10 21:04:00,
2013-09-10 17:09:00,87.1,71.6,29.95,West,270,6.7,16.6,60,0.00,,,0.08,WUHU21623XXSP,2013-09-10 21:09:00,
2013-09-10 17:14:00,87.1,71.6,29.95,West,270,6.5,16.6,60,0.00,,,0.08,WUHU21623XXSP,2013-09-10 21:14:00,
2013-09-10 17:19:00,87.1,71.6,29.95,SSW,202,5.6,17.0,60,0.00,,,0.08,WUHU21623XXSP,2013-09-10 21:19:00,
2013-09-10 17:24:00,86.9,71.4,29.95,WSW,247,14.1,17.0,60,0.00,,,0.08,WUHU21623XXSP,2013-09-10 21:24:00,
2013-09-10 17:29:00,86.7,71.7,29.95,SSW,202,8.9,19.5,61,0.00,,,0.08,WUHU21623XXSP,2013-09-10 21:29:00,
2013-09-10 17:34:00,86.5,71.5,29.95,WSW,247,10.3,19.5,61,0.00,,,0.08,WUHU21623XXSP,2013-09-10 21:34:00,
2013-09-10 17:39:00,86.5,71.5,29.95,SW,225,8.7,16.3,61,0.00,,,0.08,WUHU21623XXSP,2013-09-10 21:39:00,
2013-09-10 17:44:00,86.5,71.1,29.95,WSW,247,6.5,13.9,60,0.00,,,0.08,WUHU21623XXSP,2013-09-10 21:44:00,
2013-09-10 17:49:00,86.5,71.1,29.95,WSW,247,6.9,13.9,60,0.00,,,0.08,WUHU21623XXSP,2013-09-10 21:49:00,
2013-09-10 17:54:00,86.2,70.7,29.95,SW,225,8.1,13.4,60,0.00,,,0.08,WUHU21623XXSP,2013-09-10 21:54:00,
2013-09-10 17:59:00,86.2,71.2,29.94,WSW,247,7.6,12.3,61,0.00,,,0.08,WUHU21623XXSP,2013-09-10 21:59:00,
2013-09-10 18:04:00,86.2,70.7,29.94,SW,225,11.9,11.9,60,0.00,,,0.08,WUHU21623XXSP,2013-09-10 22:04:00,
2013-09-10 18:09:00,86.0,70.5,29.94,West,270,5.4,11.9,60,0.00,,,0.08,WUHU21623XXSP,2013-09-10 22:09:00,
2013-09-10 18:14:00,85.8,70.4,29.94,WNW,292,7.8,10.3,60,0.00,,,0.08,WUHU21623XXSP,2013-09-10 22:14:00,
2013-09-10 18:19:00,85.8,70.8,29.94,West,270,5.8,10.7,61,0.00,,,0.08,WUHU21623XXSP,2013-09-10 22:19:00,
2013-09-10 18:24:00,85.6,70.6,29.94,WSW,247,6.5,10.7,61,0.00,,,0.08,WUHU21623XXSP,2013-09-10 22:24:00,
2013-09-10 18:29:00,85.3,70.3,29.94,SW,225,7.8,8.5,61,0.00,,,0.08,WUHU21623XXSP,2013-09-10 22:29:00,
2013-09-10 18:34:00,84.9,70.0,29.94,SW,225,3.4,9.4,61,0.00,,,0.08,WUHU21623XXSP,2013-09-10 22:34:00,
2013-09-10 18:39:00,84.7,69.8,29.94,West,270,1.3,11.9,61,0.00,,,0.08,WUHU21623XXSP,2013-09-10 22:39:00,
2013-09-10 18:44:00,84.4,69.5,29.94,WSW,247,3.6,11.9,61,0.00,,,0.08,WUHU21623XXSP,2013-09-10 22:44:00,
2013-09-10 18:49:00,84.2,69.8,29.94,SW,225,4.0,10.7,62,0.00,,,0.08,WUHU21623XXSP,2013-09-10 22:49:00,
2013-09-10 18:54:00,83.8,69.4,29.94,SSW,202,5.1,10.7,62,0.00,,,0.08,WUHU21623XXSP,2013-09-10 22:54:00,
2013-09-10 18:59:00,82.9,69.0,29.94,WSW,247,4.3,10.7,63,0.00,,,0.08,WUHU21623XXSP,2013-09-10 22:59:00,
2013-09-10 19:04:00,82.4,68.9,29.94,SW,225,5.1,8.9,64,0.00,,,0.08,WUHU21623XXSP,2013-09-10 23:04:00,
2013-09-10 19:09:00,82.0,69.0,29.94,WSW,247,8.5,9.8,65,0.00,,,0.08,WUHU21623XXSP,2013-09-10 23:09:00,
2013-09-10 19:14:00,81.9,68.9,29.94,SSW,202,0.0,10.5,65,0.00,,,0.08,WUHU21623XXSP,2013-09-10 23:14:00,
2013-09-10 19:19:00,81.5,69.2,29.94,West,270,0.0,10.5,66,0.00,,,0.08,WUHU21623XXSP,2013-09-10 23:19:00,
2013-09-10 19:24:00,81.3,68.8,29.94,SW,225,1.6,9.4,66,0.00,,,0.08,WUHU21623XXSP,2013-09-10 23:24:00,
2013-09-10 19:29:00,81.3,68.8,29.94,WSW,247,9.6,13.4,66,0.00,,,0.08,WUHU21623XXSP,2013-09-10 23:29:00,
2013-09-10 19:34:00,81.3,68.8,29.95,WSW,247,5.4,13.4,66,0.00,,,0.08,WUHU21623XXSP,2013-09-10 23:34:00,
2013-09-10 19:39:00,81.1,69.1,29.95,SSW,202,4.7,10.5,67,0.00,,,0.08,WUHU21623XXSP,2013-09-10 23:39:00,
2013-09-10 19:44:00,80.4,68.9,29.95,SW,225,0.0,7.8,68,0.00,,,0.08,WUHU21623XXSP,2013-09-10 23:44:00,
2013-09-10 19:49:00,79.9,68.8,29.95,SW,225,4.5,6.0,69,0.00,,,0.08,WUHU21623XXSP,2013-09-10 23:49:00,
2013-09-10 19:54:00,79.5,68.9,29.95,SW,225,4.9,7.6,70,0.00,,,0.08,WUHU21623XXSP,2013-09-10 23:54:00,
2013-09-10 19:59:00,79.3,69.1,29.95,WSW,247,3.1,8.3,71,0.00,,,0.08,WUHU21623XXSP,2013-09-10 23:59:00,
2013-09-10 20:04:00,79.0,69.2,29.96,SW,225,0.0,8.5,72,0.00,,,0.08,WUHU21623XXSP,2013-09-11 00:04:00,
2013-09-10 20:09:00,78.6,69.2,29.96,WSW,247,6.3,10.3,73,0.00,,,0.08,WUHU21623XXSP,2013-09-11 00:09:00,
2013-09-10 20:14:00,78.6,69.2,29.96,West,270,5.1,10.7,73,0.00,,,0.08,WUHU21623XXSP,2013-09-11 00:14:00,
2013-09-10 20:19:00,78.4,69.4,29.96,West,270,6.3,10.7,74,0.00,,,0.08,WUHU21623XXSP,2013-09-11 00:19:00,
2013-09-10 20:24:00,78.4,69.8,29.96,WSW,247,0.2,9.8,75,0.00,,,0.08,WUHU21623XXSP,2013-09-11 00:24:00,
2013-09-10 20:29:00,78.1,69.5,29.96,WSW,247,5.1,9.8,75,0.00,,,0.08,WUHU21623XXSP,2013-09-11 00:29:00,
2013-09-10 20:34:00,78.1,69.5,29.96,WSW,247,2.9,11.6,75,0.00,,,0.08,WUHU21623XXSP,2013-09-11 00:34:00,
2013-09-10 20:39:00,77.7,69.5,29.96,SW,225,7.2,11.6,76,0.00,,,0.08,WUHU21623XXSP,2013-09-11 00:39:00,
2013-09-10 20:44:00,77.7,69.5,29.97,WSW,247,9.6,9.6,76,0.00,,,0.08,WUHU21623XXSP,2013-09-11 00:44:00,
2013-09-10 20:49:00,77.5,69.3,29.97,SW,225,8.5,9.6,76,0.00,,,0.08,WUHU21623XXSP,2013-09-11 00:49:00,
2013-09-10 20:54:00,77.4,69.5,29.97,West,270,0.0,8.5,77,0.00,,,0.08,WUHU21623XXSP,2013-09-11 00:54:00,
2013-09-10 20:59:00,77.4,69.5,29.97,WSW,247,2.5,11.6,77,0.00,,,0.08,WUHU21623XXSP,2013-09-11 00:59:00,
2013-09-10 21:04:00,77.5,69.7,29.97,West,270,0.0,11.6,77,0.00,,,0.08,WUHU21623XXSP,2013-09-11 01:04:00,
2013-09-10 21:09:00,77.7,69.9,29.98,SW,225,4.0,11.6,77,0.00,,,0.08,WUHU21623XXSP,2013-09-11 01:09:00,
2013-09-10 21:14:00,77.9,69.7,29.98,SW,225,4.9,14.1,76,0.00,,,0.08,WUHU21623XXSP,2013-09-11 01:14:00,
2013-09-10 21:19:00,77.7,69.5,29.98,WSW,247,2.5,14.1,76,0.00,,,0.08,WUHU21623XXSP,2013-09-11 01:19:00,
2013-09-10 21:24:00,77.7,69.9,29.99,West,270,4.7,12.8,77,0.00,,,0.08,WUHU21623XXSP,2013-09-11 01:24:00,
2013-09-10 21:29:00,77.7,69.9,29.99,SSW,202,12.8,12.8,77,0.00,,,0.08,WUHU21623XXSP,2013-09-11 01:29:00,
2013-09-10 21:34:00,77.7,69.9,29.99,WSW,247,0.0,12.8,77,0.00,,,0.08,WUHU21623XXSP,2013-09-11 01:34:00,
2013-09-10 21:39:00,77.4,69.5,29.99,SW,225,4.7,12.8,77,0.00,,,0.08,WUHU21623XXSP,2013-09-11 01:39:00,
2013-09-10 21:44:00,77.2,69.4,29.99,WSW,247,0.0,8.5,77,0.00,,,0.08,WUHU21623XXSP,2013-09-11 01:44:00,
2013-09-10 21:49:00,77.4,69.5,30.00,West,270,4.7,9.2,77,0.00,,,0.08,WUHU21623XXSP,2013-09-11 01:49:00,
2013-09-10 21:54:00,77.2,69.4,29.99,WSW,247,6.5,9.2,77,0.00,,,0.08,WUHU21623XXSP,2013-09-11 01:54:00,
2013-09-10 21:59:00,77.2,69.4,29.99,West,270,0.0,6.9,77,0.00,,,0.08,WUHU21623XXSP,2013-09-11 01:59:00,
2013-09-10 22:04:00,77.2,69.4,30.00,SW,225,0.0,6.9,77,0.00,,,0.08,WUHU21623XXSP,2013-09-11 02:04:00,
2013-09-10 22:09:00,76.8,69.0,30.00,WSW,247,3.8,8.1,77,0.00,,,0.08,WUHU21623XXSP,2013-09-11 02:09:00,
2013-09-10 22:14:00,76.8,69.4,29.99,SW,225,4.9,8.1,78,0.00,,,0.08,WUHU21623XXSP,2013-09-11 02:14:00,
2013-09-10 22:19:00,76.6,69.2,30.00,WNW,292,0.0,6.9,78,0.00,,,0.08,WUHU21623XXSP,2013-09-11 02:19:00,
2013-09-10 22:24:00,76.3,69.3,29.99,West,270,0.0,6.7,79,0.00,,,0.08,WUHU21623XXSP,2013-09-11 02:24:00,
2013-09-10 22:29:00,76.1,69.1,29.99,SW,225,3.4,6.9,79,0.00,,,0.08,WUHU21623XXSP,2013-09-11 02:29:00,
2013-09-10 22:34:00,75.9,69.0,30.00,West,270,5.1,6.9,79,0.00,,,0.08,WUHU21623XXSP,2013-09-11 02:34:00,
2013-09-10 22:39:00,75.7,69.2,29.99,WSW,247,0.0,6.7,80,0.00,,,0.08,WUHU21623XXSP,2013-09-11 02:39:00,
2013-09-10 22:44:00,75.9,69.4,29.99,SW,225,0.0,7.4,80,0.00,,,0.08,WUHU21623XXSP,2013-09-11 02:44:00,
2013-09-10 22:49:00,76.1,69.1,30.00,WSW,247,0.0,7.4,79,0.00,,,0.08,WUHU21623XXSP,2013-09-11 02:49:00,
2013-09-10 22:54:00,76.3,69.3,30.00,WSW,247,0.0,6.9,79,0.00,,,0.08,WUHU21623XXSP,2013-09-11 02:54:00,
2013-09-10 22:59:00,76.3,69.3,30.00,WSW,247,7.2,7.2,79,0.00,,,0.08,WUHU21623XXSP,2013-09-11 02:59:00,
2013-09-10 23:04:00,75.9,69.0,30.00,WSW,247,0.0,7.2,79,0.00,,,0.08,WUHU21623XXSP,2013-09-11 03:04:00,
2013-09-10 23:09:00,75.7,68.8,30.00,WSW,247,1.6,5.6,79,0.00,,,0.08,WUHU21623XXSP,2013-09-11 03:09:00,
2013-09-10 23:14:00,75.4,68.9,30.00,WSW,247,0.0,6.0,80,0.00,,,0.08,WUHU21623XXSP,2013-09-11 03:14:00,
2013-09-10 23:19:00,75.4,68.9,30.00,SW,225,5.8,6.7,80,0.00,,,0.08,WUHU21623XXSP,2013-09-11 03:19:00,
2013-09-10 23:24:00,75.4,68.9,30.00,SSW,202,0.0,7.8,80,0.00,,,0.08,WUHU21623XXSP,2013-09-11 03:24:00,
2013-09-10 23:29:00,75.2,68.7,30.00,SSW,202,0.0,7.8,80,0.00,,,0.08,WUHU21623XXSP,2013-09-11 03:29:00,
2013-09-10 23:34:00,75.0,68.9,30.00,SW,225,6.3,9.6,81,0.00,,,0.08,WUHU21623XXSP,2013-09-11 03:34:00,
2013-09-10 23:39:00,75.0,68.9,30.00,SSW,202,0.0,9.6,81,0.00,,,0.08,WUHU21623XXSP,2013-09-11 03:39:00,
2013-09-10 23:44:00,75.0,68.9,30.00,SW,225,0.0,8.5,81,0.00,,,0.08,WUHU21623XXSP,2013-09-11 03:44:00,
2013-09-10 23:49:00,75.0,68.9,30.00,SW,225,8.3,8.3,81,0.00,,,0.08,WUHU21623XXSP,2013-09-11 03:49:00,
2013-09-10 23:54:00,75.0,68.9,30.00,West,270,0.0,9.2,81,0.00,,,0.08,WUHU21623XXSP,2013-09-11 03:54:00,
2013-09-10 23:59:00,75.0,68.9,30.00,SW,225,0.0,9.2,81,0.00,,,0.08,WUHU21623XXSP,2013-09-11 03:59:00,